Date String (YYYY-MM-DD hh:mm:ss) UTC,Instrument flags,Ambient pressure (hPa),Sample flow (lpm),Bypass flow (lpm),Sample temperature (°C),Ambient temperature (°C),ASC tube jacket temperature (°C),LED temperature (°C),Box temperature (°C),Sample RH (%),Span deviation,Mass concentration (μg/m³),Mass concentration (μg/m³),Mass concentration (μg/m³)
DateTimeUTC,F1_M11,P_M11,Q1_M11,Q2_M11,T1_M11,T2_M11,T3_M11,T4_M11,T5_M11,U1_M11,ZSPAN_M11,X2_M11,X0_M11,X1_M11
2021-08-19 22:00:00,,0824.2,5.01,0.00,32.5,28.6,00.0,40.8,32.5,33.8,0001.7,0009.41,0017.06,0008.21
2021-08-19 22:01:00,,0824.1,4.99,0.00,32.6,28.7,00.0,40.9,32.6,33.5,0001.7,0009.30,0017.20,0008.12
2021-08-19 22:02:00,,0824.1,4.99,0.00,32.6,28.8,00.0,40.9,32.6,34.4,0001.7,0009.28,0017.38,0008.04
2021-08-19 22:03:00,,0824.1,5.00,0.00,32.6,29.0,00.0,40.9,32.7,34.8,0001.7,0009.22,0016.73,0007.99
2021-08-19 22:04:00,,0824.1,5.01,0.00,32.6,29.0,00.0,40.9,32.7,34.5,0001.5,0009.23,0016.62,0007.97
2021-08-19 22:05:00,,0824.0,5.00,0.00,32.6,29.0,00.0,41.0,32.8,34.1,0001.3,0009.24,0016.39,0007.98
2021-08-19 22:06:00,,0823.9,5.01,0.00,32.6,27.9,00.0,41.0,32.4,32.2,0001.4,0009.21,0016.23,0007.99
2021-08-19 22:07:00,,0823.9,4.99,0.00,32.3,26.4,00.0,40.9,31.9,32.2,0001.6,0009.17,0015.65,0008.00
2021-08-19 22:08:00,,0823.8,5.01,0.00,32.2,26.2,00.0,40.9,31.9,32.5,0002.0,0009.15,0015.53,0007.98
2021-08-19 22:09:00,,0823.7,4.99,0.00,32.0,26.5,00.0,40.8,31.9,32.9,0002.0,0009.15,0015.70,0007.97
2021-08-19 22:10:00,,0823.8,5.00,0.00,31.9,26.9,00.0,40.8,32.0,33.1,0001.9,0009.18,0015.38,0007.98
2021-08-19 22:11:00,,0823.7,4.99,0.00,31.8,27.3,00.0,40.7,32.0,33.4,0001.5,0009.17,0015.04,0007.98
2021-08-19 22:12:00,,0823.8,5.00,0.00,31.7,27.7,00.0,40.7,32.1,33.9,0001.3,0009.19,0014.80,0008.00
2021-08-19 22:13:00,,0823.7,5.00,0.00,31.7,28.0,00.0,40.6,32.2,34.5,0001.1,0009.14,0014.45,0008.02
2021-08-19 22:14:00,,0823.8,5.00,0.00,31.7,28.2,00.0,40.6,32.2,35.6,0000.8,0009.16,0014.93,0008.03
2021-08-19 22:15:00,,0823.9,4.99,0.00,31.8,28.4,00.0,40.6,32.4,33.8,0000.7,0009.09,0014.82,0008.00
2021-08-19 22:16:00,,0824.0,5.01,0.00,31.9,28.6,00.0,40.6,32.5,32.7,0000.8,0008.95,0014.50,0007.92
2021-08-19 22:17:00,,0824.0,4.99,0.00,32.0,28.8,00.0,40.6,32.5,33.3,0001.0,0008.93,0014.52,0007.87
2021-08-19 22:18:00,,0824.0,5.01,0.00,32.0,28.9,00.0,40.6,32.5,33.0,0000.7,0008.97,0014.71,0007.86
2021-08-19 22:19:00,,0824.0,5.00,0.00,32.0,29.0,00.0,40.6,32.6,32.4,0000.7,0008.98,0014.79,0007.87
2021-08-19 22:20:00,,0824.0,5.01,0.00,32.0,29.1,00.0,40.6,32.6,34.4,0000.4,0008.92,0014.50,0007.86
2021-08-19 22:21:00,,0824.1,5.00,0.00,32.0,28.6,00.0,40.6,32.5,34.3,0000.4,0008.89,0014.41,0007.85
2021-08-19 22:22:00,,0824.0,5.00,0.00,32.0,27.0,00.0,40.5,32.1,33.2,0000.2,0008.88,0014.37,0007.84
2021-08-19 22:23:00,,0824.0,4.99,0.00,31.9,26.2,00.0,40.5,31.8,32.9,0000.3,0008.85,0014.19,0007.84
2021-08-19 22:24:00,,0824.1,5.02,0.00,31.8,26.3,00.0,40.5,31.8,32.5,0000.3,0008.82,0014.15,0007.83
2021-08-19 22:25:00,,0824.0,5.00,0.00,31.6,26.7,00.0,40.4,31.9,33.6,0000.5,0008.76,0014.90,0007.82
2021-08-19 22:26:00,,0824.1,4.99,0.00,31.5,27.1,00.0,40.4,31.9,33.5,0000.6,0008.74,0014.72,0007.80
2021-08-19 22:27:00,,0824.1,5.00,0.00,31.5,27.5,00.0,40.4,32.0,33.8,0000.5,0008.80,0014.86,0007.82
2021-08-19 22:28:00,,0824.1,5.01,0.00,31.4,27.8,00.0,40.3,32.1,33.5,0000.3,0008.80,0014.83,0007.84
2021-08-19 22:29:00,,0824.1,5.00,0.00,31.4,28.1,00.0,40.3,32.1,34.4,0000.5,0008.79,0014.86,0007.85
2021-08-19 22:30:00,,0824.2,5.00,0.00,31.4,28.3,00.0,40.3,32.2,34.2,0000.5,0008.81,0014.91,0007.86
2021-08-19 22:31:00,,0824.2,5.00,0.00,31.4,28.5,00.0,40.3,32.2,34.9,0000.5,0008.89,0015.03,0007.91
2021-08-19 22:32:00,,0824.2,4.99,0.00,31.4,28.6,00.0,40.3,32.3,34.4,0001.1,0009.00,0015.16,0007.97
2021-08-19 22:33:00,,0824.2,5.01,0.00,31.5,28.8,00.0,40.3,32.4,34.2,0001.3,0009.12,0015.37,0008.02
2021-08-19 22:34:00,,0824.3,4.99,0.00,31.5,28.9,00.0,40.3,32.4,33.6,0001.3,0009.20,0015.73,0008.05
2021-08-19 22:35:00,,0824.3,5.01,0.00,31.5,28.9,00.0,40.3,32.4,34.2,0001.3,0009.24,0016.24,0008.06
2021-08-19 22:36:00,,0824.4,4.99,0.00,31.4,27.6,00.0,40.2,31.9,33.7,0001.3,0009.29,0015.24,0008.07
2021-08-19 22:37:00,,0824.3,4.99,0.00,31.2,26.3,00.0,40.2,31.6,34.1,0001.1,0009.32,0014.82,0008.10
2021-08-19 22:38:00,,0824.3,5.02,0.00,31.1,26.1,00.0,40.2,31.5,34.7,0001.3,0009.35,0014.97,0008.10
2021-08-19 22:39:00,,0824.3,5.00,0.00,31.0,26.5,00.0,40.1,31.6,34.5,0001.4,0009.39,0015.07,0008.10
2021-08-19 22:40:00,,0824.3,4.98,0.00,30.9,26.9,00.0,40.0,31.7,35.1,0001.2,0009.41,0015.04,0008.10
2021-08-19 22:41:00,,0824.3,5.02,0.00,31.0,27.3,00.0,40.0,31.9,35.6,0001.5,0009.40,0015.39,0008.09
2021-08-19 22:42:00,,0824.3,4.99,0.00,31.2,27.7,00.0,39.9,32.1,34.6,0001.7,0009.32,0015.31,0008.03
2021-08-19 22:43:00,,0824.2,5.01,0.00,31.4,28.0,00.0,39.9,32.2,33.7,0001.4,0009.20,0015.13,0007.95
2021-08-19 22:44:00,,0824.2,4.99,0.00,31.5,28.2,00.0,40.0,32.2,32.6,0001.2,0009.03,0014.78,0007.87
2021-08-19 22:45:00,,0824.3,5.01,0.00,31.5,28.3,00.0,40.0,32.2,32.2,0001.2,0008.90,0014.37,0007.79
2021-08-19 22:46:00,,0824.2,4.99,0.00,31.5,28.5,00.0,40.0,32.2,32.9,0001.3,0008.85,0013.88,0007.75
2021-08-19 22:47:00,,0824.2,5.00,0.00,31.5,28.6,00.0,40.0,32.2,32.8,0001.3,0008.82,0013.84,0007.72
2021-08-19 22:48:00,,0824.2,5.01,0.00,31.5,28.8,00.0,40.1,32.3,32.4,0001.6,0008.80,0013.88,0007.67
2021-08-19 22:49:00,,0824.1,4.99,0.00,31.5,28.9,00.0,40.1,32.3,32.9,0001.7,0008.70,0013.55,0007.63
2021-08-19 22:50:00,,0824.1,5.00,0.00,31.5,28.1,00.0,40.1,32.1,32.9,0001.6,0008.64,0013.37,0007.60
2021-08-19 22:51:00,,0824.1,4.99,0.00,31.3,26.5,00.0,40.1,31.6,32.9,0001.4,0008.60,0013.76,0007.56
2021-08-19 22:52:00,,0824.1,5.01,0.00,31.1,25.9,00.0,40.1,31.3,32.8,0001.0,0008.56,0013.78,0007.52
2021-08-19 22:53:00,,0824.0,5.00,0.00,31.0,26.1,00.0,40.0,31.4,33.5,0000.8,0008.61,0013.89,0007.53
2021-08-19 22:54:00,,0824.0,5.01,0.00,30.9,26.6,00.0,40.0,31.5,34.2,0001.0,0008.65,0014.75,0007.53
2021-08-19 22:55:00,,0824.0,5.00,0.00,30.9,27.1,00.0,39.9,31.7,34.5,0001.3,0008.76,0015.35,0007.57
2021-08-19 22:56:00,,0823.9,4.99,0.00,30.8,27.5,00.0,39.9,31.7,34.9,0001.2,0008.83,0015.46,0007.63
2021-08-19 22:57:00,,0824.0,5.01,0.00,30.9,27.8,00.0,39.9,31.8,35.2,0001.4,0008.81,0015.74,0007.64
2021-08-19 22:58:00,,0824.0,5.00,0.00,31.1,28.1,00.0,39.8,32.0,34.5,0001.3,0008.77,0017.13,0007.61
2021-08-19 22:59:00,,0824.0,4.98,0.00,31.2,28.3,00.0,39.8,32.1,34.8,0000.9,0008.79,0017.40,0007.61
